Ely, NV

3:41 PM PST on November 20, 2017 (GMT -0800)
Ely

Weather History for KELY - January, 2013

Change the Weather History Date:

Thursday, January 17, 2013

  Actual Average Record
Temperature  
Mean Temperature 12 °F 25 °F  
Max Temperature 31 °F 40 °F 60 °F (1961)
Min Temperature -8 °F 11 °F -21 °F (1949)
Degree Days  
Heating Degree Days 53 40  
Month to date heating degree days 932 680  
Since 1 July heating degree days 3570 3780  
Cooling Degree Days 0 0  
Month to date cooling degree days 0 0  
Year to date cooling degree days 0 0  
Moisture  
Dew Point 0 °F    
Average Humidity 63    
Maximum Humidity 83    
Minimum Humidity 43    
Precipitation  
Precipitation 0.00 in 0.02 in 0.60 in (1893)
Month to date precipitation 0.25 0.40  
Year to date precipitation 0.25 0.40  
Snow  
Snow 0.00 in 0.30 in 4.10 in (1993)
Month to date snowfall 4.9 5.3  
Since 1 July snowfall 38.7 23.2  
Snow Depth 9.00 in    
Sea Level Pressure  
Sea Level Pressure 30.71 in    
Wind  
Wind Speed 8 mph (South)    
Max Wind Speed 17 mph    
Max Gust Speed 18 mph    
Visibility 10 miles    
Events      
T = Trace of Precipitation, MM = Missing Value Source: NWS Daily Summary

Daily Weather History Graph

Daily Weather History Graph

Search for Another Location

Airport or City:

Trip Planner

Search our weather history database for the weather conditions in past years. The results will help you decide how hot, cold, wet, or windy it might be!

Date:

Astronomy

Jan. 17, 2013 Rise Set
Actual Time 6:56 AM PST 4:43 PM PST
Civil Twilight 6:27 AM PST 5:12 PM PST
Nautical Twilight 5:54 AM PST 5:45 PM PST
Astronomical Twilight 5:22 AM PST 6:17 PM PST
Moon 10:08 AM PST (1/17) 11:35 PM PST (1/17)
Length of Visible Light 10h 45m
Length of Day
9h 46m
Waxing Crescent, 39% of the Moon is Illuminated
Jan 17
Waxing Crescent
Jan 18
First Quarter
Jan 26
Full
Feb 3
Last Quarter
Feb 9
New

Hourly Weather History & Observations

Time (PST) Temp. Windchill Dew Point Humidity Pressure Visibility Wind Dir Wind Speed Gust Speed Precip Events Conditions
12:53 AM -0.0 °F -16.3 °F -5.1 °F 79% 30.70 in 10.0 mi South 10.4 mph - N/A   Clear
1:53 AM -2.9 °F -21.6 °F -8.0 °F 79% 30.70 in 10.0 mi South 12.7 mph - N/A   Clear
2:53 AM -0.9 °F -17.4 °F -6.0 °F 79% 30.69 in 10.0 mi South 10.4 mph - N/A   Clear
3:53 AM -5.1 °F -23.5 °F -9.0 °F 83% 30.71 in 10.0 mi SSE 11.5 mph - N/A   Clear
4:53 AM -5.1 °F -25.1 °F -9.9 °F 80% 30.78 in 10.0 mi South 13.8 mph - N/A   Clear
5:53 AM -2.0 °F -19.6 °F -7.1 °F 79% 30.78 in 10.0 mi South 11.5 mph - N/A   Clear
6:53 AM -7.1 °F -26.8 °F -11.0 °F 83% 30.83 in 10.0 mi South 12.7 mph - N/A   Clear
7:53 AM -0.9 °F -18.3 °F -6.0 °F 79% 30.84 in 10.0 mi South 11.5 mph - N/A   Clear
8:53 AM 6.1 °F -5.6 °F -0.9 °F 73% 30.82 in 10.0 mi SSE 6.9 mph - N/A   Clear
9:53 AM 14.0 °F 6.5 °F 5.0 °F 67% 30.79 in 10.0 mi South 4.6 mph - N/A   Clear
10:53 AM 19.0 °F 13.9 °F 7.0 °F 59% 30.73 in 10.0 mi SSW 3.5 mph - N/A   Clear
11:53 AM 28.0 °F - 10.0 °F 47% 30.64 in 10.0 mi Calm Calm - N/A   Clear
12:53 PM 28.0 °F - 10.9 °F 49% 30.63 in 10.0 mi Calm Calm - N/A   Clear
1:53 PM 28.9 °F 25.2 °F 10.0 °F 45% 30.61 in 10.0 mi NNW 3.5 mph - N/A   Clear
2:53 PM 30.0 °F - 10.9 °F 45% 30.59 in 10.0 mi Calm Calm - N/A   Clear
3:53 PM 26.1 °F - 10.9 °F 53% 30.63 in 10.0 mi Calm Calm - N/A   Clear
4:53 PM 12.9 °F - 6.1 °F 74% 30.71 in 10.0 mi Calm Calm - N/A   Clear
5:53 PM 6.1 °F -8.7 °F -0.0 °F 76% 30.74 in 10.0 mi South 10.4 mph - N/A   Clear
6:53 PM 6.1 °F -7.8 °F -0.0 °F 76% 30.78 in 10.0 mi SSE 9.2 mph - N/A   Clear
7:53 PM 5.0 °F -10.8 °F -0.9 °F 76% 30.75 in 10.0 mi South 11.5 mph - N/A   Clear
8:53 PM 1.0 °F -15.8 °F -4.0 °F 79% 30.73 in 10.0 mi South 11.5 mph - N/A   Clear
9:53 PM 3.9 °F -13.7 °F -2.0 °F 76% 30.68 in 10.0 mi South 13.8 mph - N/A   Clear
10:53 PM -0.9 °F -19.9 °F -6.0 °F 79% 30.67 in 10.0 mi South 13.8 mph - N/A   Clear
11:53 PM 1.9 °F -16.2 °F -5.1 °F 72% 30.61 in 10.0 mi South 13.8 mph - N/A   Clear